C6053 KMOB-KMOB

Flight info

Callsign C6053
Flight time 2h 1m
Altitude 4000
Route K2R5 301539N0882013W 301559N0882903W 302239N0883200W
Aircraft H60/L-DGILORTUVY/SB2

Departure

Time 2026-04-19 04:55
Airport Mobile Regional Airport (KMOB)

Arrival

Time 2026-04-19 06:57
Airport Mobile Regional Airport (KMOB)
Time Latitude Longitude Altitude Speed Heading
2026-04-19 04:41 30.69476 -88.24301 221 ft 0 kts 359°
2026-04-19 04:53 30.69480 -88.24301 221 ft 3 kts 355°
2026-04-19 04:53 30.69490 -88.24331 221 ft 9 kts 231°
2026-04-19 04:53 30.69465 -88.24370 220 ft 0 kts 233°
2026-04-19 04:54 30.69461 -88.24376 226 ft 3 kts 232°
2026-04-19 04:54 30.69403 -88.24406 239 ft 20 kts 197°
2026-04-19 04:54 30.69133 -88.24382 327 ft 61 kts 183°
2026-04-19 04:55 30.68589 -88.24348 528 ft 91 kts 182°
2026-04-19 04:55 30.67942 -88.24505 761 ft 99 kts 195°
2026-04-19 04:55 30.67254 -88.24702 948 ft 106 kts 197°
2026-04-19 04:55 30.66505 -88.24899 1023 ft 114 kts 195°
2026-04-19 04:56 30.65729 -88.25055 1259 ft 111 kts 194°
2026-04-19 04:56 30.64956 -88.25154 1418 ft 113 kts 191°
2026-04-19 04:56 30.64153 -88.25203 1504 ft 118 kts 187°
2026-04-19 04:56 30.63353 -88.25242 1617 ft 110 kts 190°
2026-04-19 04:57 30.62573 -88.25309 1574 ft 113 kts 190°
2026-04-19 04:57 30.61801 -88.25378 1505 ft 111 kts 190°
2026-04-19 04:57 30.61025 -88.25445 1451 ft 113 kts 190°
2026-04-19 04:57 30.60242 -88.25514 1474 ft 114 kts 190°
2026-04-19 04:58 30.59466 -88.25635 1490 ft 113 kts 199°
2026-04-19 04:58 30.58704 -88.25905 1496 ft 114 kts 203°
2026-04-19 04:58 30.57973 -88.26171 1498 ft 112 kts 203°
2026-04-19 04:58 30.57243 -88.26437 1501 ft 108 kts 203°
2026-04-19 04:59 30.56498 -88.26683 1498 ft 115 kts 200°
2026-04-19 04:59 30.55694 -88.26884 1498 ft 121 kts 197°
2026-04-19 04:59 30.54834 -88.27014 1494 ft 128 kts 190°
2026-04-19 04:59 30.53925 -88.27118 1491 ft 134 kts 191°
2026-04-19 05:00 30.53033 -88.27380 1505 ft 131 kts 201°
2026-04-19 05:00 30.52143 -88.27643 1490 ft 136 kts 195°
2026-04-19 05:00 30.51164 -88.27729 1480 ft 147 kts 183°
2026-04-19 05:00 30.50131 -88.27451 1486 ft 158 kts 162°
2026-04-19 05:01 30.49164 -88.26985 1515 ft 134 kts 161°
2026-04-19 05:01 30.48398 -88.26597 1511 ft 120 kts 161°
2026-04-19 05:01 30.47648 -88.26219 1530 ft 117 kts 161°
2026-04-19 05:01 30.46904 -88.26018 1510 ft 102 kts 192°
2026-04-19 05:02 30.46370 -88.26406 1478 ft 87 kts 242°
2026-04-19 05:02 30.46382 -88.27047 1394 ft 82 kts 298°
2026-04-19 05:02 30.46887 -88.27325 1269 ft 88 kts 356°
2026-04-19 05:02 30.47429 -88.26955 1124 ft 97 kts 45°
2026-04-19 05:03 30.47790 -88.26288 1051 ft 98 kts 57°
2026-04-19 05:03 30.48135 -88.25612 1055 ft 99 kts 57°
2026-04-19 05:03 30.48508 -88.24884 967 ft 118 kts 57°
2026-04-19 05:03 30.48936 -88.24061 974 ft 117 kts 57°
2026-04-19 05:04 30.49363 -88.23250 964 ft 119 kts 57°
2026-04-19 05:04 30.49813 -88.22569 972 ft 92 kts 36°
2026-04-19 05:04 30.50345 -88.22508 965 ft 70 kts 346°
2026-04-19 05:04 30.50726 -88.22796 970 ft 73 kts 336°
2026-04-19 05:05 30.51291 -88.23142 928 ft 106 kts 319°
2026-04-19 05:05 30.51675 -88.23920 936 ft 119 kts 284°
2026-04-19 05:05 30.51600 -88.24850 759 ft 114 kts 246°
2026-04-19 05:05 30.51206 -88.25576 616 ft 101 kts 237°
2026-04-19 05:06 30.50841 -88.26230 433 ft 92 kts 237°
2026-04-19 05:06 30.50533 -88.26840 245 ft 80 kts 240°
2026-04-19 05:06 30.50316 -88.27276 158 ft 45 kts 238°
2026-04-19 05:06 30.50214 -88.27454 139 ft 16 kts 238°
2026-04-19 05:07 30.50165 -88.27555 149 ft 32 kts 237°
2026-04-19 05:07 30.50022 -88.27849 211 ft 56 kts 237°
2026-04-19 05:07 30.49788 -88.28295 374 ft 69 kts 239°
2026-04-19 05:07 30.49523 -88.28804 452 ft 76 kts 238°
2026-04-19 05:08 30.49275 -88.29310 608 ft 68 kts 240°
2026-04-19 05:08 30.48754 -88.30370 776 ft 75 kts 240°
2026-04-19 05:08 30.48523 -88.30887 812 ft 69 kts 239°
2026-04-19 05:09 30.48342 -88.31398 985 ft 69 kts 240°
2026-04-19 05:09 30.48050 -88.31800 949 ft 77 kts 218°
2026-04-19 05:09 30.47475 -88.31674 967 ft 89 kts 160°
2026-04-19 05:09 30.46977 -88.31274 966 ft 86 kts 147°
2026-04-19 05:10 30.46549 -88.30884 982 ft 71 kts 147°
2026-04-19 05:10 30.46159 -88.30577 969 ft 64 kts 147°
2026-04-19 05:10 30.45869 -88.30185 934 ft 81 kts 128°
2026-04-19 05:10 30.46032 -88.29496 966 ft 94 kts 58°
2026-04-19 05:11 30.46320 -88.28938 952 ft 56 kts 57°
2026-04-19 05:11 30.46422 -88.28568 928 ft 52 kts 57°
2026-04-19 05:11 30.46555 -88.28098 955 ft 64 kts 57°
2026-04-19 05:11 30.46715 -88.27596 952 ft 72 kts 57°
2026-04-19 05:12 30.46981 -88.27071 952 ft 80 kts 54°
2026-04-19 05:12 30.47330 -88.26505 956 ft 92 kts 54°
2026-04-19 05:12 30.47704 -88.25867 951 ft 98 kts 54°
2026-04-19 05:12 30.48089 -88.25218 960 ft 96 kts 54°
2026-04-19 05:13 30.48456 -88.24590 954 ft 93 kts 54°
2026-04-19 05:13 30.48694 -88.24174 952 ft 94 kts 54°
2026-04-19 05:13 30.49060 -88.23546 953 ft 94 kts 54°
2026-04-19 05:13 30.49514 -88.23024 946 ft 95 kts 27°
2026-04-19 05:14 30.50176 -88.22998 954 ft 98 kts 344°
2026-04-19 05:14 30.50768 -88.23345 967 ft 91 kts 329°
2026-04-19 05:14 30.51364 -88.23837 800 ft 66 kts 309°
2026-04-19 05:14 30.51421 -88.24186 687 ft 70 kts 294°
2026-04-19 05:15 30.51495 -88.24781 652 ft 76 kts 268°
2026-04-19 05:15 30.51342 -88.25290 577 ft 57 kts 243°
2026-04-19 05:15 30.51161 -88.25658 480 ft 53 kts 243°
2026-04-19 05:15 30.50962 -88.26026 412 ft 53 kts 243°
2026-04-19 05:16 30.50780 -88.26372 345 ft 47 kts 243°
2026-04-19 05:16 30.50621 -88.26667 261 ft 38 kts 243°
2026-04-19 05:16 30.50517 -88.26874 211 ft 21 kts 243°
2026-04-19 05:16 30.50450 -88.27008 175 ft 17 kts 243°
2026-04-19 05:17 30.50439 -88.27022 144 ft 3 kts 243°
2026-04-19 05:17 30.50435 -88.27032 153 ft 3 kts 243°
2026-04-19 05:17 30.50370 -88.27161 160 ft 38 kts 243°
2026-04-19 05:18 30.50156 -88.27579 213 ft 83 kts 240°
2026-04-19 05:18 30.49748 -88.28171 285 ft 102 kts 215°
2026-04-19 05:18 30.49045 -88.28448 375 ft 108 kts 199°
2026-04-19 05:18 30.48307 -88.28677 530 ft 109 kts 197°
2026-04-19 05:19 30.47567 -88.28905 576 ft 113 kts 197°
2026-04-19 05:19 30.46771 -88.29079 579 ft 117 kts 191°
2026-04-19 05:19 30.46008 -88.29231 583 ft 113 kts 191°
2026-04-19 05:19 30.45247 -88.29380 585 ft 111 kts 191°
2026-04-19 05:20 30.44486 -88.29527 585 ft 109 kts 192°
2026-04-19 05:20 30.43726 -88.29672 584 ft 111 kts 192°
2026-04-19 05:20 30.42958 -88.29823 585 ft 111 kts 191°
2026-04-19 05:20 30.42191 -88.29971 586 ft 111 kts 192°
2026-04-19 05:21 30.41427 -88.30116 583 ft 112 kts 191°
2026-04-19 05:21 30.40664 -88.30263 583 ft 110 kts 192°
2026-04-19 05:21 30.39906 -88.30405 582 ft 110 kts 192°
2026-04-19 05:21 30.39146 -88.30547 585 ft 112 kts 191°
2026-04-19 05:22 30.38390 -88.30688 589 ft 104 kts 194°
2026-04-19 05:22 30.37662 -88.30883 577 ft 112 kts 197°
2026-04-19 05:22 30.36928 -88.31092 585 ft 108 kts 198°
2026-04-19 05:22 30.36193 -88.31300 581 ft 109 kts 197°
2026-04-19 05:23 30.35469 -88.31523 577 ft 109 kts 197°
2026-04-19 05:23 30.34742 -88.31756 581 ft 111 kts 197°
2026-04-19 05:23 30.33981 -88.31886 580 ft 109 kts 189°
2026-04-19 05:23 30.33229 -88.31987 582 ft 109 kts 189°
2026-04-19 05:24 30.32469 -88.32071 583 ft 110 kts 189°
2026-04-19 05:24 30.31727 -88.32175 586 ft 98 kts 194°
2026-04-19 05:24 30.30989 -88.32340 585 ft 109 kts 194°
2026-04-19 05:24 30.30247 -88.32496 580 ft 108 kts 194°
2026-04-19 05:25 30.29505 -88.32663 579 ft 112 kts 194°
2026-04-19 05:25 30.28757 -88.32818 583 ft 108 kts 194°
2026-04-19 05:25 30.28057 -88.33036 458 ft 92 kts 201°
2026-04-19 05:25 30.27599 -88.33204 310 ft 50 kts 194°
2026-04-19 05:26 30.27262 -88.33304 204 ft 50 kts 194°
2026-04-19 05:26 30.26924 -88.33403 205 ft 50 kts 194°
2026-04-19 05:26 30.26587 -88.33502 211 ft 50 kts 194°
2026-04-19 05:26 30.26296 -88.33589 206 ft 27 kts 194°
2026-04-19 05:27 30.26234 -88.33608 203 ft 0 kts 194°
2026-04-19 05:27 30.26233 -88.33608 212 ft 1 kts 194°
2026-04-19 05:27 30.26132 -88.33639 208 ft 20 kts 194°
2026-04-19 05:27 30.25997 -88.33680 207 ft 20 kts 194°
2026-04-19 05:28 30.25862 -88.33719 207 ft 20 kts 188°
2026-04-19 05:28 30.25723 -88.33716 207 ft 20 kts 178°
2026-04-19 05:28 30.25583 -88.33709 212 ft 20 kts 178°
2026-04-19 05:28 30.25444 -88.33702 210 ft 20 kts 178°
2026-04-19 05:29 30.25305 -88.33694 207 ft 20 kts 177°
2026-04-19 05:29 30.25166 -88.33687 207 ft 20 kts 177°
2026-04-19 05:29 30.25026 -88.33679 207 ft 20 kts 177°
2026-04-19 05:29 30.24887 -88.33673 212 ft 20 kts 177°
2026-04-19 05:30 30.24748 -88.33666 207 ft 20 kts 177°
2026-04-19 05:30 30.24608 -88.33660 213 ft 20 kts 177°
2026-04-19 05:30 30.24469 -88.33653 206 ft 20 kts 177°
2026-04-19 05:30 30.24331 -88.33648 207 ft 19 kts 178°
2026-04-19 05:31 30.24251 -88.33645 206 ft 10 kts 178°
2026-04-19 05:31 30.24181 -88.33642 206 ft 10 kts 178°
2026-04-19 05:31 30.24137 -88.33640 205 ft 10 kts 178°
2026-04-19 05:31 30.24107 -88.33639 208 ft 1 kts 181°
2026-04-19 05:32 30.24106 -88.33639 208 ft 0 kts 265°
2026-04-19 05:32 30.24105 -88.33681 207 ft 29 kts 268°
2026-04-19 05:32 30.24098 -88.33997 210 ft 40 kts 269°
2026-04-19 05:32 30.24087 -88.34318 207 ft 40 kts 268°
2026-04-19 05:33 30.24076 -88.34640 208 ft 40 kts 268°
2026-04-19 05:33 30.24064 -88.34983 205 ft 53 kts 268°
2026-04-19 05:33 30.24052 -88.35324 207 ft 25 kts 268°
2026-04-19 05:33 30.24049 -88.35430 205 ft 10 kts 268°
2026-04-19 05:34 30.24046 -88.35512 204 ft 10 kts 268°
2026-04-19 05:34 30.24045 -88.35557 206 ft 0 kts 268°
2026-04-19 05:34 30.24044 -88.35556 207 ft 0 kts 353°
2026-04-19 05:34 30.24242 -88.35573 212 ft 40 kts 357°
2026-04-19 05:35 30.24521 -88.35590 207 ft 40 kts 358°
2026-04-19 05:35 30.24799 -88.35599 208 ft 40 kts 358°
2026-04-19 05:35 30.25077 -88.35610 207 ft 40 kts 358°
2026-04-19 05:35 30.25356 -88.35621 207 ft 40 kts 358°
2026-04-19 05:36 30.25631 -88.35631 210 ft 40 kts 358°
2026-04-19 05:36 30.25913 -88.35642 204 ft 40 kts 358°
2026-04-19 05:36 30.26191 -88.35654 208 ft 40 kts 358°
2026-04-19 05:36 30.26469 -88.35666 211 ft 40 kts 356°
2026-04-19 05:37 30.26748 -88.35683 207 ft 40 kts 356°
2026-04-19 05:37 30.26951 -88.35696 204 ft 20 kts 357°
2026-04-19 05:37 30.27090 -88.35705 205 ft 20 kts 357°
2026-04-19 05:37 30.27229 -88.35713 206 ft 20 kts 357°
2026-04-19 05:38 30.27362 -88.35722 207 ft 13 kts 357°
2026-04-19 05:38 30.27379 -88.35723 206 ft 1 kts 45°
2026-04-19 05:38 30.27380 -88.35660 210 ft 36 kts 88°
2026-04-19 05:38 30.27384 -88.35268 210 ft 50 kts 89°
2026-04-19 05:39 30.27398 -88.34865 208 ft 50 kts 87°
2026-04-19 05:39 30.27413 -88.34464 208 ft 50 kts 87°
2026-04-19 05:39 30.27427 -88.34061 207 ft 50 kts 87°
2026-04-19 05:39 30.27442 -88.33659 207 ft 50 kts 87°
2026-04-19 05:40 30.27455 -88.33257 208 ft 50 kts 88°
2026-04-19 05:40 30.27466 -88.32856 208 ft 48 kts 88°
2026-04-19 05:40 30.27476 -88.32526 207 ft 39 kts 87°
2026-04-19 05:40 30.27484 -88.32309 204 ft 20 kts 87°
2026-04-19 05:41 30.27491 -88.32148 205 ft 20 kts 87°
2026-04-19 05:41 30.27497 -88.31987 205 ft 19 kts 87°
2026-04-19 05:41 30.27499 -88.31917 205 ft 10 kts 87°
2026-04-19 05:41 30.27501 -88.31874 205 ft 0 kts 101°
2026-04-19 05:42 30.27477 -88.31873 205 ft 24 kts 176°
2026-04-19 05:42 30.27159 -88.31856 211 ft 50 kts 178°
2026-04-19 05:42 30.26811 -88.31839 208 ft 50 kts 178°
2026-04-19 05:42 30.26463 -88.31822 207 ft 50 kts 178°
2026-04-19 05:43 30.26115 -88.31806 213 ft 50 kts 178°
2026-04-19 05:43 30.25768 -88.31789 207 ft 50 kts 178°
2026-04-19 05:43 30.25420 -88.31771 207 ft 50 kts 178°
2026-04-19 05:43 30.25072 -88.31754 207 ft 50 kts 178°
2026-04-19 05:44 30.24724 -88.31737 210 ft 50 kts 178°
2026-04-19 05:44 30.24376 -88.31721 208 ft 50 kts 178°
2026-04-19 05:44 30.24028 -88.31704 207 ft 50 kts 178°
2026-04-19 05:44 30.23681 -88.31688 205 ft 50 kts 178°
2026-04-19 05:45 30.23333 -88.31672 204 ft 50 kts 178°
2026-04-19 05:45 30.22995 -88.31656 214 ft 41 kts 178°
2026-04-19 05:45 30.22817 -88.31648 210 ft 20 kts 178°
2026-04-19 05:45 30.22678 -88.31641 210 ft 20 kts 178°
2026-04-19 05:46 30.22542 -88.31634 211 ft 15 kts 178°
2026-04-19 05:46 30.22520 -88.31632 202 ft 1 kts 271°
2026-04-19 05:46 30.22519 -88.31657 201 ft 22 kts 267°
2026-04-19 05:46 30.22504 -88.32015 206 ft 50 kts 267°
2026-04-19 05:47 30.22488 -88.32417 205 ft 50 kts 267°
2026-04-19 05:47 30.22472 -88.32819 206 ft 50 kts 267°
2026-04-19 05:47 30.22457 -88.33221 204 ft 50 kts 267°
2026-04-19 05:47 30.22441 -88.33622 214 ft 50 kts 267°
2026-04-19 05:48 30.22426 -88.34024 209 ft 50 kts 267°
2026-04-19 05:48 30.22410 -88.34426 203 ft 50 kts 267°
2026-04-19 05:48 30.22394 -88.34828 204 ft 50 kts 267°
2026-04-19 05:48 30.22378 -88.35229 203 ft 50 kts 267°
2026-04-19 05:49 30.22361 -88.35631 204 ft 50 kts 267°
2026-04-19 05:49 30.22345 -88.36032 203 ft 50 kts 267°
2026-04-19 05:49 30.22329 -88.36435 203 ft 50 kts 267°
2026-04-19 05:49 30.22314 -88.36832 203 ft 46 kts 267°
2026-04-19 05:50 30.22305 -88.37061 201 ft 20 kts 267°
2026-04-19 05:50 30.22301 -88.37222 202 ft 20 kts 268°
2026-04-19 05:50 30.22299 -88.37332 201 ft 1 kts 268°
2026-04-19 05:50 30.22298 -88.37379 211 ft 0 kts 268°
2026-04-19 05:51 30.22297 -88.37422 204 ft 0 kts 268°
2026-04-19 05:51 30.22297 -88.37421 205 ft 4 kts 359°
2026-04-19 05:51 30.22553 -88.37422 207 ft 50 kts 359°
2026-04-19 05:51 30.22900 -88.37430 206 ft 50 kts 359°
2026-04-19 05:52 30.23248 -88.37445 204 ft 50 kts 358°
2026-04-19 05:52 30.23596 -88.37462 210 ft 50 kts 358°
2026-04-19 05:52 30.23944 -88.37478 207 ft 50 kts 358°
2026-04-19 05:52 30.24292 -88.37495 208 ft 50 kts 358°
2026-04-19 05:53 30.24639 -88.37511 210 ft 50 kts 358°
2026-04-19 05:53 30.24987 -88.37527 206 ft 50 kts 358°
2026-04-19 05:53 30.25335 -88.37543 206 ft 50 kts 358°
2026-04-19 05:53 30.25683 -88.37559 209 ft 50 kts 358°
2026-04-19 05:54 30.26031 -88.37577 210 ft 50 kts 358°
2026-04-19 05:54 30.26379 -88.37594 207 ft 50 kts 358°
2026-04-19 05:54 30.26727 -88.37611 211 ft 50 kts 357°
2026-04-19 05:54 30.27074 -88.37632 206 ft 50 kts 357°
2026-04-19 05:55 30.27422 -88.37652 212 ft 50 kts 357°
2026-04-19 05:55 30.27770 -88.37672 209 ft 50 kts 357°
2026-04-19 05:55 30.28117 -88.37692 205 ft 50 kts 357°
2026-04-19 05:55 30.28463 -88.37706 205 ft 47 kts 358°
2026-04-19 05:56 30.28670 -88.37713 209 ft 20 kts 358°
2026-04-19 05:56 30.28810 -88.37719 205 ft 20 kts 358°
2026-04-19 05:56 30.28920 -88.37723 212 ft 3 kts 358°
2026-04-19 05:56 30.28970 -88.37725 210 ft 6 kts 358°
2026-04-19 05:57 30.28974 -88.37726 209 ft 1 kts 88°
2026-04-19 05:57 30.28973 -88.37663 205 ft 36 kts 91°
2026-04-19 05:57 30.28971 -88.37270 208 ft 50 kts 88°
2026-04-19 05:57 30.28984 -88.36868 208 ft 50 kts 88°
2026-04-19 05:58 30.28997 -88.36466 208 ft 50 kts 88°
2026-04-19 05:58 30.29004 -88.36200 208 ft 50 kts 88°
2026-04-19 05:58 30.29017 -88.35797 207 ft 50 kts 88°
2026-04-19 05:58 30.29030 -88.35395 207 ft 50 kts 88°
2026-04-19 05:59 30.29043 -88.34993 206 ft 50 kts 88°
2026-04-19 05:59 30.29059 -88.34591 206 ft 50 kts 86°
2026-04-19 05:59 30.29079 -88.34189 209 ft 50 kts 86°
2026-04-19 05:59 30.29099 -88.33787 206 ft 50 kts 86°
2026-04-19 06:00 30.29115 -88.33385 204 ft 50 kts 88°
2026-04-19 06:00 30.29125 -88.32982 205 ft 50 kts 88°
2026-04-19 06:00 30.29136 -88.32580 205 ft 50 kts 88°
2026-04-19 06:00 30.29149 -88.32181 206 ft 50 kts 88°
2026-04-19 06:01 30.29163 -88.31775 207 ft 50 kts 88°
2026-04-19 06:01 30.29178 -88.31373 205 ft 50 kts 88°
2026-04-19 06:01 30.29192 -88.30971 207 ft 50 kts 88°
2026-04-19 06:01 30.29206 -88.30569 205 ft 50 kts 88°
2026-04-19 06:02 30.29216 -88.30267 204 ft 20 kts 88°
2026-04-19 06:02 30.29219 -88.30175 204 ft 10 kts 88°
2026-04-19 06:02 30.29222 -88.30094 205 ft 10 kts 88°
2026-04-19 06:02 30.29223 -88.30033 206 ft 0 kts 88°
2026-04-19 06:03 30.29224 -88.30034 206 ft 4 kts 176°
2026-04-19 06:03 30.28965 -88.30023 209 ft 50 kts 178°
2026-04-19 06:03 30.28617 -88.30006 211 ft 50 kts 177°
2026-04-19 06:03 30.28270 -88.29981 209 ft 50 kts 176°
2026-04-19 06:04 30.27922 -88.29958 208 ft 50 kts 177°
2026-04-19 06:04 30.27574 -88.29939 208 ft 50 kts 177°
2026-04-19 06:04 30.27226 -88.29922 206 ft 50 kts 178°
2026-04-19 06:04 30.26878 -88.29906 206 ft 50 kts 178°
2026-04-19 06:05 30.26530 -88.29889 215 ft 50 kts 178°
2026-04-19 06:05 30.26182 -88.29873 206 ft 50 kts 178°
2026-04-19 06:05 30.25835 -88.29856 210 ft 50 kts 178°
2026-04-19 06:05 30.25487 -88.29837 205 ft 50 kts 177°
2026-04-19 06:06 30.25139 -88.29820 204 ft 50 kts 178°
2026-04-19 06:06 30.24791 -88.29806 209 ft 50 kts 178°
2026-04-19 06:06 30.24443 -88.29792 204 ft 50 kts 178°
2026-04-19 06:06 30.24095 -88.29779 204 ft 50 kts 178°
2026-04-19 06:07 30.23747 -88.29765 203 ft 50 kts 178°
2026-04-19 06:07 30.23399 -88.29747 206 ft 50 kts 176°
2026-04-19 06:07 30.23052 -88.29719 213 ft 50 kts 176°
2026-04-19 06:07 30.22704 -88.29698 204 ft 50 kts 178°
2026-04-19 06:08 30.22356 -88.29683 203 ft 50 kts 178°
2026-04-19 06:08 30.22008 -88.29667 204 ft 50 kts 178°
2026-04-19 06:08 30.21660 -88.29651 204 ft 50 kts 178°
2026-04-19 06:08 30.21312 -88.29636 205 ft 50 kts 178°
2026-04-19 06:09 30.21028 -88.29624 207 ft 25 kts 178°
2026-04-19 06:09 30.20958 -88.29622 200 ft 7 kts 178°
2026-04-19 06:09 30.20932 -88.29620 202 ft 0 kts 257°
2026-04-19 06:09 30.20923 -88.29622 203 ft 5 kts 269°
2026-04-19 06:10 30.20917 -88.29926 207 ft 50 kts 266°
2026-04-19 06:10 30.20896 -88.30328 206 ft 50 kts 266°
2026-04-19 06:10 30.20876 -88.30729 205 ft 50 kts 266°
2026-04-19 06:10 30.20855 -88.31131 204 ft 50 kts 266°
2026-04-19 06:11 30.20842 -88.31533 203 ft 50 kts 268°
2026-04-19 06:11 30.20829 -88.31935 209 ft 50 kts 268°
2026-04-19 06:11 30.20814 -88.32336 209 ft 50 kts 267°
2026-04-19 06:12 30.20784 -88.33140 203 ft 50 kts 267°
2026-04-19 06:12 30.20771 -88.33540 204 ft 50 kts 268°
2026-04-19 06:12 30.20759 -88.33944 208 ft 50 kts 268°
2026-04-19 06:12 30.20746 -88.34340 204 ft 50 kts 268°
2026-04-19 06:13 30.20734 -88.34748 204 ft 50 kts 268°
2026-04-19 06:13 30.20720 -88.35144 204 ft 50 kts 268°
2026-04-19 06:13 30.20706 -88.35546 204 ft 50 kts 268°
2026-04-19 06:13 30.20693 -88.35948 204 ft 50 kts 267°
2026-04-19 06:14 30.20670 -88.36349 209 ft 50 kts 267°
2026-04-19 06:14 30.20653 -88.36751 203 ft 50 kts 267°
2026-04-19 06:14 30.20637 -88.37153 204 ft 50 kts 267°
2026-04-19 06:14 30.20620 -88.37554 203 ft 50 kts 267°
2026-04-19 06:15 30.20607 -88.37956 204 ft 50 kts 269°
2026-04-19 06:15 30.20600 -88.38358 203 ft 50 kts 269°
2026-04-19 06:15 30.20632 -88.38758 209 ft 50 kts 281°
2026-04-19 06:15 30.20708 -88.39156 204 ft 50 kts 282°
2026-04-19 06:16 30.20801 -88.39538 204 ft 50 kts 291°
2026-04-19 06:16 30.20988 -88.39875 211 ft 50 kts 309°
2026-04-19 06:16 30.21208 -88.40185 132 ft 50 kts 310°
2026-04-19 06:16 30.21383 -88.40418 42 ft 22 kts 310°
2026-04-19 06:17 30.21414 -88.40459 40 ft 0 kts 311°
2026-04-19 06:17 30.21414 -88.40460 42 ft 1 kts 311°
2026-04-19 06:17 30.21427 -88.40480 95 ft 23 kts 311°
2026-04-19 06:17 30.21645 -88.40768 119 ft 63 kts 310°
2026-04-19 06:18 30.22007 -88.41191 348 ft 75 kts 311°
2026-04-19 06:18 30.22429 -88.41483 558 ft 68 kts 314°
2026-04-19 06:18 30.22860 -88.41721 720 ft 72 kts 314°
2026-04-19 06:18 30.23353 -88.42038 993 ft 96 kts 325°
2026-04-19 06:19 30.23948 -88.42449 1028 ft 97 kts 325°
2026-04-19 06:19 30.24518 -88.42833 1026 ft 94 kts 325°
2026-04-19 06:19 30.25092 -88.43233 1023 ft 98 kts 325°
2026-04-19 06:19 30.25684 -88.43729 1022 ft 104 kts 320°
2026-04-19 06:20 30.26205 -88.44226 895 ft 85 kts 318°
2026-04-19 06:20 30.26545 -88.44566 743 ft 46 kts 320°
2026-04-19 06:20 30.26698 -88.44712 580 ft 12 kts 320°
2026-04-19 06:20 30.26709 -88.44722 428 ft 0 kts 320°
2026-04-19 06:21 30.26708 -88.44720 274 ft 1 kts 320°
2026-04-19 06:21 30.26708 -88.44719 172 ft 0 kts 320°
2026-04-19 06:21 30.26708 -88.44718 85 ft 0 kts 320°
2026-04-19 06:21 30.26708 -88.44719 42 ft 1 kts 320°
2026-04-19 06:22 30.26708 -88.44720 43 ft 1 kts 320°
2026-04-19 06:22 30.26818 -88.44827 160 ft 50 kts 320°
2026-04-19 06:22 30.27131 -88.45119 377 ft 79 kts 320°
2026-04-19 06:22 30.27578 -88.45516 887 ft 78 kts 320°
2026-04-19 06:23 30.28017 -88.45886 912 ft 82 kts 320°
2026-04-19 06:23 30.28477 -88.46271 906 ft 82 kts 328°
2026-04-19 06:23 30.28994 -88.46557 909 ft 82 kts 331°
2026-04-19 06:23 30.29512 -88.46830 909 ft 82 kts 331°
2026-04-19 06:24 30.30034 -88.47097 900 ft 82 kts 331°
2026-04-19 06:24 30.30550 -88.47393 774 ft 84 kts 331°
2026-04-19 06:24 30.31093 -88.47696 763 ft 87 kts 331°
2026-04-19 06:24 30.31645 -88.47995 761 ft 87 kts 330°
2026-04-19 06:25 30.32141 -88.48377 758 ft 84 kts 323°
2026-04-19 06:25 30.32641 -88.48776 759 ft 88 kts 323°
2026-04-19 06:25 30.33134 -88.49144 786 ft 78 kts 323°
2026-04-19 06:25 30.33582 -88.49474 619 ft 90 kts 323°
2026-04-19 06:26 30.34200 -88.49991 562 ft 122 kts 323°
2026-04-19 06:26 30.34890 -88.50563 583 ft 119 kts 323°
2026-04-19 06:26 30.35503 -88.51065 634 ft 95 kts 323°
2026-04-19 06:26 30.35983 -88.51440 623 ft 75 kts 323°
2026-04-19 06:27 30.36361 -88.51804 576 ft 67 kts 319°
2026-04-19 06:27 30.36676 -88.52145 500 ft 57 kts 318°
2026-04-19 06:27 30.36930 -88.52441 433 ft 47 kts 318°
2026-04-19 06:27 30.37132 -88.52673 342 ft 34 kts 318°
2026-04-19 06:28 30.37260 -88.52832 285 ft 22 kts 318°
2026-04-19 06:28 30.37406 -88.52989 271 ft 28 kts 318°
2026-04-19 06:28 30.37491 -88.53079 226 ft 21 kts 318°
2026-04-19 06:28 30.37611 -88.53203 204 ft 17 kts 318°
2026-04-19 06:29 30.37692 -88.53280 90 ft 9 kts 318°
2026-04-19 06:29 30.37738 -88.53324 60 ft 2 kts 318°
2026-04-19 06:29 30.37758 -88.53344 37 ft 8 kts 318°
2026-04-19 06:29 30.37776 -88.53362 91 ft 8 kts 86°
2026-04-19 06:30 30.37764 -88.53344 44 ft 3 kts 86°
2026-04-19 06:30 30.37760 -88.53333 28 ft 0 kts 85°
2026-04-19 06:30 30.37760 -88.53332 32 ft 1 kts 84°
2026-04-19 06:30 30.37806 -88.53304 116 ft 28 kts
2026-04-19 06:31 30.38211 -88.53250 353 ft 75 kts
2026-04-19 06:31 30.38763 -88.53194 416 ft 82 kts
2026-04-19 06:31 30.39304 -88.52996 487 ft 84 kts 36°
2026-04-19 06:31 30.39519 -88.52384 463 ft 91 kts 91°
2026-04-19 06:32 30.39197 -88.51829 509 ft 79 kts 149°
2026-04-19 06:32 30.38709 -88.51999 457 ft 77 kts 221°
2026-04-19 06:32 30.38364 -88.52263 423 ft 47 kts 207°
2026-04-19 06:32 30.38190 -88.52491 296 ft 33 kts 218°
2026-04-19 06:33 30.38019 -88.52670 246 ft 29 kts 220°
2026-04-19 06:33 30.37926 -88.52823 210 ft 24 kts 222°
2026-04-19 06:33 30.37859 -88.52980 173 ft 19 kts 225°
2026-04-19 06:33 30.37808 -88.53140 114 ft 16 kts 229°
2026-04-19 06:34 30.37790 -88.53204 102 ft 10 kts 231°
2026-04-19 06:34 30.37782 -88.53262 81 ft 5 kts 219°
2026-04-19 06:34 30.37771 -88.53309 44 ft 4 kts 217°
2026-04-19 06:34 30.37768 -88.53328 31 ft 3 kts 219°
2026-04-19 06:35 30.37764 -88.53335 26 ft 0 kts 219°
2026-04-19 06:35 30.37761 -88.53337 27 ft 2 kts 219°
2026-04-19 06:35 30.37804 -88.53419 109 ft 35 kts 315°
2026-04-19 06:35 30.38205 -88.53737 328 ft 98 kts 325°
2026-04-19 06:36 30.38662 -88.54081 556 ft 62 kts 327°
2026-04-19 06:36 30.39021 -88.53936 459 ft 56 kts 35°
2026-04-19 06:36 30.39197 -88.53485 571 ft 68 kts 34°
2026-04-19 06:36 30.39480 -88.52949 596 ft 86 kts 53°
2026-04-19 06:37 30.39749 -88.52439 616 ft 58 kts 53°
2026-04-19 06:37 30.39846 -88.52051 565 ft 64 kts 53°
2026-04-19 06:37 30.39911 -88.51550 600 ft 60 kts 86°
2026-04-19 06:37 30.39810 -88.50979 674 ft 90 kts 108°
2026-04-19 06:38 30.39362 -88.50442 730 ft 98 kts 155°
2026-04-19 06:38 30.38717 -88.50466 726 ft 97 kts 213°
2026-04-19 06:38 30.38298 -88.50992 631 ft 70 kts 236°
2026-04-19 06:38 30.38131 -88.51380 454 ft 48 kts 244°
2026-04-19 06:39 30.38016 -88.51713 350 ft 41 kts 242°
2026-04-19 06:39 30.37916 -88.51995 297 ft 37 kts 249°
2026-04-19 06:39 30.37851 -88.52345 299 ft 54 kts 261°
2026-04-19 06:39 30.37806 -88.52748 240 ft 39 kts 258°
2026-04-19 06:40 30.37782 -88.52968 134 ft 20 kts 257°
2026-04-19 06:40 30.37769 -88.53092 111 ft 17 kts 261°
2026-04-19 06:40 30.37761 -88.53199 84 ft 11 kts 265°
2026-04-19 06:40 30.37757 -88.53269 57 ft 7 kts 264°
2026-04-19 06:41 30.37757 -88.53316 39 ft 3 kts 263°
2026-04-19 06:41 30.37757 -88.53334 25 ft 1 kts 264°
2026-04-19 06:41 30.37759 -88.53341 38 ft 1 kts 263°
2026-04-19 06:42 30.37774 -88.53375 133 ft 19 kts 319°
2026-04-19 06:42 30.38014 -88.53637 366 ft 76 kts 321°
2026-04-19 06:42 30.38566 -88.54067 677 ft 111 kts 328°
2026-04-19 06:42 30.39225 -88.54502 825 ft 103 kts 329°
2026-04-19 06:43 30.39837 -88.54973 966 ft 104 kts 328°
2026-04-19 06:43 30.40448 -88.55438 968 ft 108 kts 335°
2026-04-19 06:43 30.41210 -88.55549 960 ft 116 kts
2026-04-19 06:43 30.41927 -88.55077 970 ft 124 kts 41°
2026-04-19 06:44 30.42359 -88.54197 974 ft 128 kts 63°
2026-04-19 06:44 30.42659 -88.53306 1030 ft 108 kts 63°
2026-04-19 06:44 30.42920 -88.52453 1170 ft 113 kts 63°
2026-04-19 06:44 30.43180 -88.51589 1331 ft 115 kts 63°
2026-04-19 06:45 30.43447 -88.50740 1410 ft 111 kts 63°
2026-04-19 06:45 30.43707 -88.49898 1454 ft 113 kts 63°
2026-04-19 06:45 30.43963 -88.49045 1462 ft 113 kts 63°
2026-04-19 06:45 30.44218 -88.48188 1462 ft 112 kts 63°
2026-04-19 06:46 30.44481 -88.47361 1461 ft 102 kts 58°
2026-04-19 06:46 30.44839 -88.46725 1465 ft 88 kts 40°
2026-04-19 06:46 30.45361 -88.46113 1455 ft 116 kts 40°
2026-04-19 06:46 30.45908 -88.45462 1454 ft 116 kts 40°
2026-04-19 06:47 30.46459 -88.44798 1460 ft 114 kts 40°
2026-04-19 06:47 30.47029 -88.44151 1449 ft 118 kts 36°
2026-04-19 06:47 30.47624 -88.43562 1459 ft 113 kts 35°
2026-04-19 06:47 30.48215 -88.42978 1462 ft 112 kts 35°
2026-04-19 06:48 30.48808 -88.42385 1461 ft 112 kts 35°
2026-04-19 06:48 30.49391 -88.41793 1458 ft 111 kts 35°
2026-04-19 06:48 30.49985 -88.41211 1457 ft 113 kts 34°
2026-04-19 06:48 30.50568 -88.40628 1457 ft 111 kts 35°
2026-04-19 06:49 30.51178 -88.40063 1447 ft 115 kts 29°
2026-04-19 06:49 30.51830 -88.39584 1452 ft 111 kts 27°
2026-04-19 06:49 30.52480 -88.39108 1457 ft 109 kts 27°
2026-04-19 06:49 30.53120 -88.38629 1455 ft 110 kts 27°
2026-04-19 06:50 30.53763 -88.38163 1457 ft 108 kts 27°
2026-04-19 06:50 30.54405 -88.37688 1457 ft 112 kts 27°
2026-04-19 06:50 30.55055 -88.37144 1459 ft 111 kts 32°
2026-04-19 06:50 30.55659 -88.36616 1455 ft 111 kts 32°
2026-04-19 06:51 30.56271 -88.36072 1464 ft 111 kts 32°
2026-04-19 06:51 30.56879 -88.35535 1469 ft 110 kts 32°
2026-04-19 06:51 30.57488 -88.34996 1471 ft 110 kts 32°
2026-04-19 06:51 30.58034 -88.34461 1476 ft 101 kts 35°
2026-04-19 06:52 30.58621 -88.33883 1473 ft 105 kts 35°
2026-04-19 06:52 30.59204 -88.33302 1476 ft 111 kts 35°
2026-04-19 06:52 30.59788 -88.32713 1471 ft 111 kts 35°
2026-04-19 06:52 30.60370 -88.32113 1472 ft 113 kts 35°
2026-04-19 06:53 30.60951 -88.31520 1471 ft 110 kts 35°
2026-04-19 06:53 30.61527 -88.30933 1472 ft 113 kts 33°
2026-04-19 06:53 30.62132 -88.30382 1471 ft 113 kts 32°
2026-04-19 06:53 30.62741 -88.29843 1471 ft 108 kts 32°
2026-04-19 06:54 30.63295 -88.29325 1389 ft 97 kts 32°
2026-04-19 06:54 30.63810 -88.28879 1373 ft 89 kts 30°
2026-04-19 06:54 30.64296 -88.28467 1248 ft 85 kts 30°
2026-04-19 06:54 30.64765 -88.28076 1009 ft 81 kts 30°
2026-04-19 06:55 30.65260 -88.27696 956 ft 106 kts 30°
2026-04-19 06:55 30.65943 -88.27187 875 ft 110 kts 30°
2026-04-19 06:55 30.66507 -88.26759 908 ft 83 kts 30°
2026-04-19 06:55 30.66964 -88.26413 872 ft 73 kts 30°
2026-04-19 06:56 30.67433 -88.26044 836 ft 103 kts 30°
2026-04-19 06:56 30.68125 -88.25556 738 ft 123 kts 30°
2026-04-19 06:56 30.68820 -88.25057 636 ft 104 kts 30°
2026-04-19 06:56 30.69273 -88.24696 593 ft 54 kts 30°
2026-04-19 06:57 30.69429 -88.24453 434 ft 21 kts 30°
2026-04-19 06:57 30.69470 -88.24358 246 ft 5 kts 30°
2026-04-19 06:57 30.69454 -88.24379 219 ft 0 kts 29°
2026-04-19 06:57 30.69460 -88.24375 221 ft 2 kts 31°
2026-04-19 06:58 30.69474 -88.24357 220 ft 2 kts 74°
2026-04-19 06:58 30.69463 -88.24339 221 ft 4 kts 172°
2026-04-19 06:58 30.69450 -88.24338 221 ft 0 kts 176°